CZ-3B DEB, 39337

Orbit data source: Space-Track

CZ-3B DEB, 39337 is space debris in HEO originally from a launch on Sat, 04 Sep 2010 UTC launched from the Xichang Space Center, China (XSC). Debris objects in space refer to the collection of defunct objects orbiting the Earth. Examples of debris include non-operational satellites, rocket bodies, and fragments generated from explosions, collisions, or faulty payload assembly.

Loading next visibility...
Identifier
39337, 2010-042J
Orbit
HEO
Country
Flag of CNCN / PRC
Related business
Manufacturer
CALT
Mission
Spacecraft
Bus & Motor
Unknown
Mass
Unknown
Launch date (UTC)
2010-09-04 (16 years ago)
Launch vehicle
Unknown
Launch site
Xichang Space Center, China (XSC)
Object type
Payload
Rocket body
Debris
Shape & HBR
Unknown shape, 0.3 m
Radar Cross Section
Medium (>0.1 m² and <1 m²)

Expand to show TLE details & history
Last TLE update: 5 days ago

TLE from 5 days ago
0 CZ-3B DEB
1 39337U 10042J   26116.08142424  .00000421  00000-0  78866-2 0  9997
2 39337  24.2355 129.0212 7536161 270.6925  12.4833  1.84242140 81742
Epoch: 2026-04-26T01:57Z
TLE epoch observation values (Epoch: 2026-04-26T01:57:15.054Z)
Latitude
-0.00001°
Longitude
-114.28374°
Altitude
5,641.719 km
Speed
7.221 km/s
True Right ascension
08h 36m 28s
True Declination
0° 00' 00"
Sunlit
Object was in daylight at epoch
Visualization orbit readout
Latitude
Unknown
Longitude
Unknown
Altitude
Unknown
Speed
Unknown
Apparent Right ascension
Unknown
Apparent Declination
Unknown
Sunlit
N/A
Visualization observer readout
Local Sidereal Time
00:54:02
Azimuth
Unknown
Elevation
Unknown
Doppler factor
Unknown
Orbital elements
Apogee altitude
42,917.41 km
Perigee altitude
547.911 km
Semi-major axis
28,110.798 km
Eccentricity
0.75362
Inclination
24.2355°
RAAN
129.0212°
Arg. of periapsis
270.6925°
True anomaly
89.1818°
Mean anomaly
12.4833°
Eccentric anomaly
40.56047°
Mean motion
0.4605 °/min
Orbital period
781.75 mins
BSTAR
0.0078866
Loading maneuver chart data...
Computing Atmospheric mass density...
Loading historical data...
Loading historical data...
Loading historical data...
Loading historical data...
Loading historical data...
Loading historical data...
Loading historical data...

Documentation

Showing up to 5 results
|